Location: Boiro
(42.6475°N, 8.8834°W)
Time: 12:46:29
(UTC+01:00)

Transit 4A - Pass Details

Date: 04 December 2021
Orbit: 863 x 981 km, 66.8° (Epoch: 26 January)

Event Time Altitude Azimuth Distance (km) Brightness Sun altitude
Rises 19:18:25 0° 167° (SSE) 3,439 10.9 -13.6°
Reaches altitude 10° 19:21:28 10° 151° (SSE) 2,518 10.1 -14.1°
Maximum altitude 19:25:37 21° 105° (ESE) 1,902 9.0 -14.9°
Enters shadow 19:26:29 20° 93° (E) 1,939 9.0 -15.0°
